Miscellaneous Local Product
Issued by NWS Hastings, NE

Home | Current Version | Previous Version | Text Only | Print | Product List | Glossary On
Versions: 1 2 3 4 5 6 7 8 9 10 11 12 13 14 15 16 17 18 19 20 21 22 23 24 25 26 27 28 29 30 31 32 33 34 35 36 37 38 39 40 41 42 43 44 45 46 47 48 49 50
000
AXUS43 KGID 272202
MISGRI

GID CWA HOURLY WEATHER ROUNDUP
NATIONAL WEATHER SERVICE HASTINGS NE
500 PM CDT MON APR 27 2015

NOTE: "FAIR" INDICATES FEW OR NO CLOUDS BELOW 12,000 FEET WITH NO
SIGNIFICANT WEATHER AND/OR OBSTRUCTIONS TO VISIBILITY.

...SOUTH CENTRAL NEBRASKA...

CITY           SKY/WX    TMP DP  RH WIND       PRES   REMARKS
GRAND ISLAND   MOSUNNY   66  30  26 NE10G18   30.15F
HASTINGS       PTSUNNY   64  34  32 NE15      30.14F
KEARNEY        PTSUNNY   64  36  34 NE15G22   30.15F
ORD            SUNNY     68  31  25 NE12      30.15S
YORK           MOSUNNY   66  30  26 E14       30.14F
AURORA         MOSUNNY   65  30  26 NE14G20   30.13F
LEXINGTON      CLOUDY    64  37  37 NE13G18   30.16F
HOLDREGE       CLOUDY    63  31  30 NE14G23   30.15F
HEBRON         PTSUNNY   65  26  23 NE13      30.12F

...NEBRASKA PANHANDLE...

CITY           SKY/WX    TMP DP  RH WIND       PRES   REMARKS
CHADRON        CLOUDY    51  43  74 NW13      30.28S
ALLIANCE       MOSUNNY   60  33  36 W6        30.22F
SCOTTSBLUFF    CLOUDY    56  41  57 NW9       30.25F
SIDNEY         CLOUDY    55  36  48 N6        30.25F

...WESTERN AND NORTH CENTRAL NEBRASKA...

CITY           SKY/WX    TMP DP  RH WIND       PRES   REMARKS
VALENTINE      MOSUNNY   69  32  25 VRB7      30.19F
AINSWORTH      MOSUNNY   67  31  26 N8G21     30.19S
ONEILL         MOSUNNY   67  31  25 N10G18    30.18F
BROKEN BOW     MOSUNNY   69  31  24 NE10      30.15F
IMPERIAL       CLOUDY    60  31  33 NE13G21   30.19F
NORTH PLATTE   PTSUNNY   65  33  30 NE10G20   30.17F
MCCOOK         PTSUNNY   66  33  29 NE13      30.16F

...EASTERN NEBRASKA...

CITY           SKY/WX    TMP DP  RH WIND       PRES   REMARKS
NORFOLK        SUNNY     70  23  17 NE7G17    30.14F
SO SIOUX CITY  SUNNY     71  22  15 NE6       30.14F
TEKAMAH        SUNNY     71  27  19 NE17G23   30.12F
COLUMBUS       SUNNY     68  30  24 NE10G17   30.15F
ALBION         SUNNY     68  31  25 N5        30.15F
OMAHA EPPLEY   PTSUNNY   70  30  22 N12G23    30.11F
OFFUTT AFB     SUNNY     69  32  25 NE13      30.11F
MILLARD        SUNNY     68  31  25 N5        30.12S
LINCOLN        SUNNY     68  33  27 E9G20     30.13F
NEBRASKA CITY  SUNNY     67  20  17 NE14G20   30.11F
BEATRICE       MOSUNNY   67  32  28 NE12      30.12F
FALLS CITY     SUNNY     68  33  27 NE14      30.08F

...NORTHERN KANSAS...

CITY           SKY/WX    TMP DP  RH WIND       PRES   REMARKS
GOODLAND       MOSUNNY   58  31  35 NE15G24   30.18F
HILL CITY      PTSUNNY   63  33  32 NE21      30.14F
NORTON         CLEAR     63  27  25 NE15G26   30.14F
PHILLIPSBURG   SUNNY     66  34  30 NE16G25   30.14S
SMITH CENTER   SUNNY     63  32  31 NE16G23   30.13F
BELOIT         SUNNY     63  32  31 NE16G22   30.10F
HAYS           MOSUNNY   63  32  31 NE22G38   30.11F
RUSSELL        MOSUNNY   63  35  35 NE20G28   30.09F
CONCORDIA      PTSUNNY   63  33  32 NE13G24   30.10F
SALINA         MOSUNNY   66  34  30 NE16G25   30.07F
TOPEKA         MOSUNNY   66  36  32 NE18G24   30.06F



USA.gov is the U.S. government's official web portal to all federal, state and local government web resources and services.